Weather History for MHLC - January, 2014

Change the Weather History Date:

Sunday, January 26, 2014

  Actual Average Record
Temperature  
Mean Temperature 72 °F -  
Max Temperature 78 °F 80 °F 86 °F (2012)
Min Temperature 67 °F 66 °F 60 °F (2000)
Cooling Degree Days 8    
Growing Degree Days 22 (Base 50)    
Moisture  
Dew Point 69 °F    
Average Humidity 90    
Maximum Humidity 94    
Minimum Humidity 78    
Precipitation  
Precipitation 0.02 in 0.43 in - ()
Sea Level Pressure  
Sea Level Pressure 30.00 in    
Wind  
Wind Speed 3 mph ()    
Max Wind Speed 7 mph    
Max Gust Speed -    
Visibility 6.5 miles    
Events Rain    
Averages and records for this station are not official NWS values.
T = Trace of Precipitation, MM = Missing Value Source: Averaged Metar Reports

Daily Weather History Graph

Daily Weather History Graph

Search for Another Location

Airport or City:

Trip Planner

Search our weather history database for the weather conditions in past years. The results will help you decide how hot, cold, wet, or windy it might be!

Date:

Astronomy

Jan. 26, 2014 Rise Set
Actual Time 6:18 AM CST 5:41 PM CST
Civil Twilight 5:55 AM CST 6:04 PM CST
Nautical Twilight 5:29 AM CST 6:30 PM CST
Astronomical Twilight 5:03 AM CST 6:56 PM CST
Moon 1:52 AM CST (1/26) 1:34 PM CST (1/26)
Length of Visible Light 12h 09m
Length of Day
11h 23m
Waning Crescent, 23% of the Moon is Illuminated
Jan 26
Waning Crescent
Jan 30
New
Feb 6
First Quarter
Feb 14
Full
Feb 22
Last Quarter

Hourly Weather History & Observations

Time (CST) Temp. Dew Point Humidity Pressure Visibility Wind Dir Wind Speed Gust Speed Precip Events Conditions
12:00 AM 70 °F 68 °F 90% 30.07 in 6 mi South 5.8 mph - - Rain Light Rain
12:00 AM 69.8 °F 68.0 °F 94% 30.06 in 6.2 mi South 5.8 mph - N/A Rain Light Rain
1:00 AM 69.8 °F 68.0 °F 94% 30.01 in 6.2 mi Calm Calm - N/A   Mostly Cloudy
2:00 AM 69.8 °F 68.0 °F 94% 30.01 in 6.2 mi SW 3.5 mph - N/A   Mostly Cloudy
3:00 AM 69.8 °F 68.0 °F 94% 30.01 in 6.2 mi Calm Calm - N/A   Mostly Cloudy
4:00 AM 68.0 °F 66.2 °F 94% 30.01 in 6.2 mi SSE 2.3 mph - N/A   Mostly Cloudy
5:00 AM 68.0 °F 66.2 °F 94% 30.01 in 6.2 mi Calm Calm - N/A   Mostly Cloudy
6:00 AM 68 °F 66 °F 93% 30.04 in 6 mi SE 2.3 mph - -   Haze
6:00 AM 68.0 °F 66.2 °F 94% 30.04 in 6.2 mi SE 2.3 mph - N/A   Mostly Cloudy
7:00 AM 68.0 °F 66.2 °F 94% 30.04 in 6.2 mi Calm Calm - N/A   Scattered Clouds
8:00 AM 71.6 °F 66.2 °F 83% 30.04 in 6.2 mi Calm Calm - N/A   Scattered Clouds
9:00 AM 77.0 °F 69.8 °F 78% 30.06 in 6.2 mi South 6.9 mph - N/A   Mostly Cloudy
10:00 AM 77.0 °F 71.6 °F 83% 30.06 in 6.2 mi WSW 4.6 mph - N/A   Mostly Cloudy
12:00 PM 75 °F 71 °F 83% 30.04 in 9 mi NNW 5.8 mph - -   Overcast
12:00 PM 75.2 °F 71.6 °F 89% 30.04 in 6.2 mi WSW 5.8 mph - N/A   Overcast
1:00 PM 77.0 °F 71.6 °F 83% 29.98 in 6.2 mi NW 2.3 mph - N/A   Overcast
3:00 PM 76 °F 71 °F 80% 29.94 in 9 mi ENE 3.5 mph - -   Haze
3:00 PM 77.0 °F 71.6 °F 83% 29.95 in 6.2 mi ENE 3.5 mph - N/A   Mostly Cloudy
4:00 PM 75.2 °F 71.6 °F 89% 29.92 in 6.2 mi NNW 2.3 mph - N/A   Mostly Cloudy
6:00 PM 73 °F 70 °F 89% 29.94 in 9 mi Calm Calm - -   Haze
7:00 PM 71.6 °F 69.8 °F 94% 29.95 in 6.2 mi SSE 2.3 mph - N/A   Mostly Cloudy
8:00 PM 71.6 °F 69.8 °F 94% 29.98 in 6.2 mi SSW 2.3 mph - N/A   Scattered Clouds
9:00 PM 70 °F 68 °F 93% 29.99 in 6 mi Calm Calm - -   Haze
9:00 PM 69.8 °F 68.0 °F 94% 29.98 in 6.2 mi Calm Calm - N/A   Mostly Cloudy
10:00 PM 69.8 °F 68.0 °F 94% 29.98 in 6.2 mi SSE 2.3 mph - N/A   Mostly Cloudy
11:00 PM 69.8 °F 68.0 °F 94% 29.95 in 6.2 mi East 3.5 mph - N/A   Partly Cloudy